{"data":{"norad_id":66133,"epoch":"2026-09-20T05:42:59.526144Z","epoch_age_seconds":123013,"freshness":"FRESH","line1":"1 66133U 25237V   26263.23818896  .00010859  00000+0  33196-3 0  9999","line2":"2 66133  53.1566 212.6445 0001476  90.2715 269.8457 15.34408204 52440","mean_motion":15.34408204,"eccentricity":0.0001476,"inclination_deg":53.1566,"raan_deg":212.6445,"arg_perigee_deg":90.2715,"mean_anomaly_deg":269.8457,"bstar":0.00033196,"rev_number":5244,"period_min":93.847256306771,"perigee_km":461.66915187845,"apogee_km":463.68856071923,"semimajor_km":6840.8158562988,"source":"CELESTRAK","updated_at":"2026-09-21T09:00:35.810226Z"}}